Vorticity
nan nan nan nan nan nan nan nan nan nan nan nan nan nan nan nan nan nan nan nan nan nan nan nan nan nan nan nan nan nan nan nan
nan 9 11 12 9 8 8 10 12 9 9 8 8 9 7 7 10 10 10 9 8 5 6 8 7 7 8 7 9 9 8 nan
nan 7 10 10 10 10 11 10 11 8 6 8 9 10 9 9 10 11 11 10 10 7 6 7 7 8 10 8 3 5 11 nan
nan 9 11 9 10 11 11 13 13 13 7 4 7 8 9 11 8 9 9 10 10 11 8 8 8 7 8 9 9 4 5 nan
nan 7 8 10 13 13 14 14 15 15 13 9 8 5 7 9 11 8 13 11 7 8 9 6 7 8 8 9 10 7 6 nan
nan 8 10 10 13 16 19 18 22 20 17 11 9 8 7 11 14 15 11 10 8 6 8 7 7 8 10 9 10 7 6 nan
nan 13 13 15 19 20 15 17 21 22 18 20 18 13 9 10 10 10 7 12 12 8 10 12 8 8 10 10 9 7 6 nan
nan 19 23 27 22 16 13 13 13 16 16 18 17 11 9 10 9 12 14 8 11 13 12 9 9 9 8 9 10 9 8 nan
nan 11 18 21 21 15 11 9 10 11 12 12 14 12 8 4 10 15 15 11 12 12 8 9 11 10 9 7 8 10 10 nan
nan 10 9 9 11 9 12 11 7 8 10 8 9 11 13 12 10 8 9 10 12 13 11 12 10 10 11 8 8 9 9 nan
nan 5 9 7 8 9 9 10 10 8 10 9 9 8 7 10 9 7 9 8 9 12 13 14 13 11 12 11 10 10 7 nan
nan 5 6 7 6 9 6 8 10 11 9 9 9 8 8 9 7 7 8 9 9 10 10 11 15 14 12 12 10 11 10 nan
nan 8 5 10 4 8 8 6 8 11 7 9 9 10 8 7 9 8 9 9 9 9 11 12 11 14 14 12 11 11 11 nan
nan 12 8 8 9 6 10 6 8 8 10 11 8 8 10 7 7 8 8 10 11 10 9 10 11 10 15 17 11 11 12 nan
nan 11 11 10 9 7 7 9 8 8 8 8 9 8 9 9 9 9 10 9 9 10 11 10 11 11 11 16 17 13 12 nan
nan 10 10 9 10 8 8 8 8 11 11 8 7 10 10 10 10 9 9 10 9 9 10 10 11 13 9 6 18 19 13 nan
nan 8 10 10 10 11 10 8 10 10 10 9 10 10 8 9 9 10 10 8 9 10 11 10 11 8 6 7 10 19 19 nan
nan 9 10 10 9 11 10 9 10 11 10 9 10 10 9 9 10 10 9 9 10 10 11 11 10 9 8 6 9 15 19 nan
nan nan nan nan nan nan nan nan nan nan nan nan nan nan nan nan nan nan nan nan nan nan nan nan nan nan nan nan nan nan nan nan
CAPE
0 0 0 0 0 0 0 0 975 1567 1705 1599 1533 1514 1582 1635 1641 1352 1190 1138 1639 1833 1339 947 456 357 446 463 253 88 40 125
0 0 0 0 0 0 0 0 7 1666 1696 1446 1212 1207 1537 1583 1441 1008 796 918 1095 1620 1313 1065 709 600 253 195 134 55 53 150
0 0 0 0 0 0 0 0 0 722 1556 1673 1551 1475 1383 1384 1073 953 859 912 905 1209 1396 1155 869 753 303 188 142 67 74 97
0 0 0 0 0 0 0 0 0 150 1951 2070 1912 1719 1776 1116 1050 973 1030 796 874 1043 1218 1245 1043 585 345 319 210 151 104 55
0 0 0 0 0 0 0 59 131 0 2095 2251 1883 1618 1284 1273 1648 1445 1513 1303 1246 1325 1109 1065 837 605 575 460 369 281 97 36
0 0 0 0 0 0 13 434 1000 863 1804 2349 1814 1743 1940 1688 1816 2035 2012 2049 1725 1395 1016 864 1035 747 749 571 333 219 146 186
0 0 0 0 0 22 305 326 340 773 1065 1397 1870 1951 950 1056 1012 1240 1185 1497 1558 1373 1387 1319 1160 883 787 579 377 171 151 135
14 1 3 2 6 35 8 37 0 0 160 383 631 801 533 759 605 926 1080 837 850 930 1261 985 1049 878 821 665 446 276 157 92
6 1 15 19 18 3 0 0 1 1 1 0 0 2 212 76 20 173 771 1240 1102 779 370 483 808 843 831 868 346 309 161 121
8 6 3 16 12 15 17 4 1 2 0 1 1 0 0 1 0 0 5 84 336 775 687 739 688 411 440 530 452 322 148 122
15 7 14 4 5 9 11 11 10 2 0 0 0 0 0 0 0 0 0 0 0 2 47 397 349 485 308 300 256 293 256 144
7 5 3 8 0 9 11 0 0 5 0 0 0 0 0 0 0 0 0 0 0 0 0 14 295 486 399 282 458 314 240 266
8 4 1 3 2 1 14 5 0 2 1 0 0 0 0 0 0 0 0 0 0 0 0 1 2 263 402 290 267 168 196 271
13 16 1 0 0 1 8 13 6 1 0 0 0 0 0 0 0 0 0 0 0 0 0 0 0 0 72 286 200 168 229 261
10 12 8 3 5 10 5 4 4 2 0 0 0 0 0 0 0 0 0 0 0 1 3 1 1 0 0 35 227 220 214 188
1 3 5 6 8 9 2 1 2 1 0 0 0 0 0 0 1 2 1 3 4 3 5 3 2 2 0 0 4 118 76 99
0 0 0 0 0 3 2 1 1 1 1 0 0 1 0 1 2 2 3 3 5 4 6 3 3 3 0 0 0 2 36 24
1 1 0 0 0 0 1 3 2 1 1 1 0 0 1 1 2 1 4 5 4 3 6 3 6 4 0 0 0 3 3 2
0 1 0 0 0 0 0 1 2 4 3 2 1 2 1 1 2 3 3 6 4 3 5 8 7 5 0 0 0 1 2 1